• In France
  • List of Countries
  • For 7 days
  • Water Temperature
  • Satellite Maps
  • Weather Map
  • Weather Widgets
  • user-avatar
    Login

    Hourly Weather Glebovka

    Today, 25 May, Friday

    Time Temperature Precipitation Wind Pressure Humidity
    00:00 +15°C° 0 mm 5 mps 747 mmHg 90%
    01:00 +15°C° 0 mm 5 mps 747 mmHg 90%
    02:00 +14°C° 0 mm 5 mps 748 mmHg 90%
    03:00 +14°C° 0 mm 5 mps 748 mmHg 90%
    04:00 +14°C° 0 mm 5 mps 749 mmHg 90%
    05:00 +14°C° 0 mm 6 mps 749 mmHg 90%
    06:00 +13°C° 0 mm 6 mps 749 mmHg 89%
    07:00 +14°C° 0 mm 7 mps 750 mmHg 86%
    08:00 +15°C° 0 mm 7 mps 750 mmHg 82%
    09:00 +16°C° 0 mm 7 mps 750 mmHg 78%
    10:00 +16°C° 0 mm 7 mps 751 mmHg 73%
    11:00 +17°C° 0 mm 8 mps 751 mmHg 68%
    12:00 +18°C° 0 mm 8 mps 751 mmHg 63%
    13:00 +18°C° 0 mm 8 mps 752 mmHg 60%
    14:00 +18°C° 0 mm 7 mps 752 mmHg 57%
    15:00 +17°C° 0 mm 7 mps 752 mmHg 54%
    16:00 +17°C° 0 mm 7 mps 752 mmHg 57%
    17:00 +16°C° 0 mm 6 mps 753 mmHg 59%
    18:00 +15°C° 0 mm 6 mps 753 mmHg 61%
    19:00 +14°C° 0 mm 5 mps 754 mmHg 62%
    20:00 +13°C° 0 mm 5 mps 754 mmHg 63%
    21:00 +11°C° 0 mm 4 mps 755 mmHg 64%
    22:00 +10°C° 0 mm 4 mps 755 mmHg 65%
    23:00 +10°C° 0 mm 4 mps 756 mmHg 67%

    Tomorrow, 26 May, Saturday

    Time Temperature Precipitation Wind Pressure Humidity
    00:00 +8°C° 0 mm 4 mps 756 mmHg 68%
    01:00 +7°C° 0 mm 4 mps 757 mmHg 70%
    02:00 +8°C° 0 mm 3 mps 757 mmHg 71%
    03:00 +7°C° 0 mm 3 mps 758 mmHg 73%
    04:00 +7°C° 0 mm 4 mps 758 mmHg 71%
    05:00 +7°C° 0 mm 4 mps 759 mmHg 70%
    06:00 +7°C° 0 mm 4 mps 759 mmHg 68%
    07:00 +8°C° 0 mm 4 mps 760 mmHg 62%
    08:00 +10°C° 0 mm 5 mps 760 mmHg 56%
    09:00 +12°C° 0 mm 5 mps 760 mmHg 50%
    10:00 +13°C° 0 mm 5 mps 761 mmHg 49%
    11:00 +14°C° 0 mm 5 mps 761 mmHg 47%
    12:00 +15°C° 0 mm 5 mps 761 mmHg 46%
    13:00 +15°C° 0 mm 4 mps 761 mmHg 46%
    14:00 +17°C° 0 mm 4 mps 761 mmHg 45%
    15:00 +17°C° 0 mm 4 mps 761 mmHg 45%
    16:00 +17°C° 0 mm 3 mps 760 mmHg 49%
    17:00 +17°C° 0 mm 3 mps 760 mmHg 52%
    18:00 +17°C° 0 mm 2 mps 760 mmHg 55%
    19:00 +15°C° 0 mm 2 mps 760 mmHg 58%
    20:00 +13°C° 0 mm 1 mps 760 mmHg 62%
    21:00 +11°C° 0 mm 1 mps 760 mmHg 65%
    22:00 +11°C° 0 mm 1 mps 761 mmHg 67%
    23:00 +10°C° 0 mm 1 mps 761 mmHg 68%

    Day after tomorrow, 27 May, Sunday

    Time Temperature Precipitation Wind Pressure Humidity
    00:00 +9°C° 0 mm 2 mps 761 mmHg 70%
    01:00 +8°C° 0 mm 2 mps 761 mmHg 71%
    02:00 +8°C° 0 mm 2 mps 761 mmHg 73%
    03:00 +7°C° 0 mm 2 mps 761 mmHg 75%
    04:00 +9°C° 0 mm 1 mps 761 mmHg 74%
    05:00 +10°C° 0 mm 1 mps 761 mmHg 74%
    06:00 +10°C° 0 mm 1 mps 761 mmHg 74%
    07:00 +12°C° 0 mm 2 mps 761 mmHg 68%
    08:00 +14°C° 0 mm 2 mps 761 mmHg 63%
    09:00 +16°C° 0 mm 2 mps 761 mmHg 57%
    10:00 +17°C° 0 mm 2 mps 760 mmHg 55%
    11:00 +18°C° 0 mm 2 mps 760 mmHg 52%
    12:00 +19°C° 0 mm 2 mps 760 mmHg 49%
    13:00 +19°C° 0 mm 3 mps 759 mmHg 49%
    14:00 +19°C° 0 mm 3 mps 759 mmHg 49%
    15:00 +20°C° 0 mm 3 mps 758 mmHg 49%
    16:00 +19°C° 0 mm 3 mps 758 mmHg 53%
    17:00 +19°C° 0 mm 3 mps 757 mmHg 57%
    18:00 +19°C° 0 mm 3 mps 756 mmHg 61%
    19:00 +17°C° 0 mm 3 mps 756 mmHg 65%
    20:00 +14°C° 0 mm 3 mps 756 mmHg 70%
    21:00 +12°C° 0 mm 3 mps 756 mmHg 74%
    22:00 +12°C° 0 mm 3 mps 755 mmHg 75%
    23:00 +11°C° 0 mm 3 mps 755 mmHg 77%

    28 May, Monday

    Time Temperature Precipitation Wind Pressure Humidity
    00:00 +11°C° 0 mm 3 mps 755 mmHg 78%
    01:00 +11°C° 0 mm 3 mps 755 mmHg 79%
    02:00 +10°C° 0 mm 3 mps 755 mmHg 80%
    03:00 +10°C° 0 mm 3 mps 754 mmHg 80%
    04:00 +11°C° 0 mm 3 mps 754 mmHg 80%
    05:00 +11°C° 0 mm 3 mps 754 mmHg 80%
    06:00 +12°C° 0 mm 3 mps 754 mmHg 80%
    07:00 +13°C° 0 mm 4 mps 754 mmHg 77%
    08:00 +15°C° 0 mm 4 mps 754 mmHg 75%
    09:00 +18°C° 0 mm 4 mps 755 mmHg 73%
    10:00 +18°C° 0 mm 4 mps 755 mmHg 65%
    11:00 +19°C° 0 mm 5 mps 755 mmHg 58%
    12:00 +20°C° 0 mm 6 mps 755 mmHg 51%
    13:00 +20°C° 0 mm 6 mps 755 mmHg 49%
    14:00 +19°C° 0 mm 6 mps 756 mmHg 46%
    15:00 +19°C° 0 mm 6 mps 756 mmHg 44%
    16:00 +19°C° 0 mm 5 mps 756 mmHg 48%
    17:00 +17°C° 0 mm 5 mps 756 mmHg 52%
    18:00 +17°C° 0 mm 4 mps 756 mmHg 56%
    19:00 +14°C° 0 mm 4 mps 757 mmHg 59%
    20:00 +12°C° 0 mm 4 mps 757 mmHg 61%
    21:00 +11°C° 0 mm 3 mps 758 mmHg 63%
    22:00 +10°C° 0 mm 3 mps 758 mmHg 64%
    23:00 +9°C° 0 mm 3 mps 759 mmHg 64%

    29 May, Tuesday

    Time Temperature Precipitation Wind Pressure Humidity
    00:00 +8°C° 0 mm 2 mps 759 mmHg 65%
    01:00 +8°C° 0 mm 2 mps 759 mmHg 65%
    02:00 +7°C° 0 mm 2 mps 760 mmHg 66%
    03:00 +7°C° 0 mm 2 mps 760 mmHg 66%
    04:00 +7°C° 0 mm 2 mps 760 mmHg 67%
    05:00 +8°C° 0 mm 2 mps 760 mmHg 68%
    06:00 +9°C° 0 mm 2 mps 760 mmHg 69%
    07:00 +11°C° 0 mm 3 mps 760 mmHg 64%
    08:00 +13°C° 0 mm 3 mps 760 mmHg 58%
    09:00 +16°C° 0 mm 3 mps 760 mmHg 53%
    10:00 +17°C° 0 mm 4 mps 760 mmHg 52%
    11:00 +18°C° 0 mm 4 mps 759 mmHg 51%
    12:00 +19°C° 0 mm 4 mps 759 mmHg 49%
    13:00 +19°C° 0 mm 5 mps 758 mmHg 50%
    14:00 +20°C° 0 mm 5 mps 758 mmHg 51%
    15:00 +20°C° 0 mm 5 mps 757 mmHg 53%
    16:00 +20°C° 0 mm 5 mps 757 mmHg 57%
    17:00 +20°C° 0 mm 4 mps 756 mmHg 60%
    18:00 +19°C° 0 mm 4 mps 755 mmHg 64%
    19:00 +18°C° 0 mm 4 mps 755 mmHg 69%
    20:00 +15°C° 0 mm 4 mps 754 mmHg 74%
    21:00 +14°C° 0 mm 4 mps 754 mmHg 78%
    22:00 +14°C° 0 mm 4 mps 753 mmHg 78%
    23:00 +13°C° 0 mm 4 mps 753 mmHg 77%

    30 May, Wednesday

    Time Temperature Precipitation Wind Pressure Humidity
    00:00 +13°C° 0 mm 5 mps 753 mmHg 77%
    01:00 +13°C° 0 mm 5 mps 752 mmHg 76%
    02:00 +12°C° 0 mm 5 mps 752 mmHg 75%
    03:00 +12°C° 0 mm 5 mps 751 mmHg 74%
    04:00 +12°C° 0 mm 5 mps 751 mmHg 75%
    05:00 +11°C° 0 mm 6 mps 750 mmHg 76%
    06:00 +13°C° 0 mm 6 mps 749 mmHg 76%
    07:00 +14°C° 0 mm 6 mps 749 mmHg 73%
    08:00 +16°C° 0 mm 6 mps 748 mmHg 70%
    09:00 +18°C° 0 mm 7 mps 748 mmHg 66%
    10:00 +20°C° 0 mm 7 mps 747 mmHg 63%
    11:00 +22°C° 0 mm 8 mps 747 mmHg 60%
    12:00 +23°C° 0 mm 8 mps 746 mmHg 57%
    13:00 +23°C° 0 mm 8 mps 746 mmHg 56%
    14:00 +24°C° 0 mm 8 mps 745 mmHg 56%
    15:00 +24°C° 0 mm 8 mps 745 mmHg 56%
    16:00 +23°C° 0.2 mm 7 mps 745 mmHg 60%
    17:00 +22°C° 0.2 mm 6 mps 744 mmHg 64%
    18:00 +21°C° 0.2 mm 5 mps 744 mmHg 68%
    19:00 +19°C° 0 mm 5 mps 745 mmHg 66%
    20:00 +16°C° 0 mm 5 mps 745 mmHg 63%
    21:00 +14°C° 0 mm 5 mps 745 mmHg 61%
    22:00 +13°C° 0 mm 4 mps 746 mmHg 62%
    23:00 +11°C° 0 mm 4 mps 746 mmHg 64%
    Show more